Location: Gandikunta
(16.3784°N, 80.8378°E)
Time: 20:13:37
(UTC+00:00)

Hubble Space Telescope - Pass Details

Date: 19 May 2025
Orbit: 488 x 491 km, 28.5° (Epoch: 20 June)

Event Time Altitude Azimuth Distance (km) Brightness Sun altitude
Rises 23:39:09 0° 295° (WNW) 2,542 3.8 -6.6°
Reaches altitude 10° 23:42:15 10° 321° (NW) 1,661 3.1 -5.9°
Maximum altitude 23:44:19 14° 354° (N) 1,430 3.2 -5.4°
Drops below altitude 10° 23:46:23 10° 27° (NNE) 1,659 4.1 -5.0°
Sets 23:49:29 0° 54° (NE) 2,539 6.2 -4.3°
